Location: Bishopstone
(51.0167°N, 1.9000°W)
Time: 11:33:50
(UTC+00:00)

Mayak - Pass Details

Date: 16 September 2019
Orbit: 582 x 602 km, 97.6° (Epoch: 22 October)

Event Time Altitude Azimuth Distance (km) Brightness Sun altitude
Rises 23:02:22 0° 12° (NNE) 2,819 3.0 -35.0°
Reaches altitude 10° 23:04:32 10° 11° (N) 1,914 2.0 -35.1°
Enters shadow 23:05:12 14° 11° (N) 1,641 1.6 -35.1°
